Home   Weather   Augsburg   Past weeks

Flag for Germany Past Weather in Augsburg, Bavaria, Germany — Yesterday and Last 2 Weeks

Now
25 °F

Clear.


Feels Like: 18 °F
Forecast: 23 / 34 °F
Wind: 6 mph from Northeast

Location: Augsburg Airport

Current Time: Dec 3, 2016 at 11:06:36 pm

Latest Report: Dec 3, 2016 at 8:50 pm


Visibility: 10 mi

Pressure: 30.21 "Hg

Humidity: 100%

Dew Point: 25 °F

Location of AugsburgLocation

Past Weather in Augsburg — Graph

°F

Augsburg Temperature Yesterday

Maximum temperature yesterday: 43 °F (at 2:20 pm)
Minimum temperature yesterday: 36 °F (at 5:50 am)
Average temperature yesterday: 39 °F

High & Low Weather Summary for the Past Weeks

 TemperatureHumidityPressure
High54 °F (Nov 21, 12:50 pm)100% (Nov 18, 8:20 pm)30.51 "Hg (Nov 18, 8:20 pm)
Low18 °F (Nov 30, 6:20 am)31% (Dec 1, 1:50 pm)29.65 "Hg (Nov 21, 12:20 pm)
Average39 °F85%30.08 "Hg
* Reported Nov 18 8:20 pm — Dec 3 8:50 pm, Augsburg, Weather by CustomWeather, © 2016

Note: Actual official high and low records may vary slightly from our data, if they occured in-between our weather recording intervals... More about our weather records

Advertising

Augsburg Weather History for the Previous 24 Hours

Scroll right to see more
 ConditionsComfort  
Time TempWeatherWind HumidityBarometerVisibility
8:50 pm
Sat, Dec 3
25 °FClear.6 mph100%30.21 "Hg10 mi
8:20 pm25 °FClear.5 mph100%30.21 "Hg4 mi
7:50 pm25 °FClear.5 mph100%30.21 "Hg10 mi
7:20 pm25 °FPassing clouds.6 mph100%30.21 "Hg6 mi
6:50 pm25 °FClear.7 mph100%30.21 "Hg6 mi
6:20 pm25 °FClear.5 mph100%30.21 "Hg6 mi
5:50 pm27 °FClear.6 mph100%30.21 "Hg6 mi
5:20 pm27 °FClear.6 mph100%30.21 "Hg6 mi
4:50 pm27 °FClear.5 mph100%30.21 "Hg6 mi
4:20 pm28 °FPassing clouds.7 mph93%30.18 "HgN/A
3:50 pm30 °FPassing clouds.9 mph80%30.18 "HgN/A
3:20 pm32 °FPassing clouds.8 mph80%30.18 "HgN/A
2:50 pm32 °FPassing clouds.8 mph80%30.18 "HgN/A
2:20 pm32 °FPassing clouds.10 mph80%30.18 "HgN/A
1:50 pm36 °FPassing clouds.9 mph60%30.18 "HgN/A
1:20 pm37 °FSunny.8 mph65%30.18 "Hg10 mi
12:50 pm37 °FPassing clouds.8 mph65%30.18 "HgN/A
12:20 pm36 °FPassing clouds.7 mph65%30.18 "HgN/A
11:50 am36 °FPassing clouds.7 mph65%30.18 "HgN/A
11:20 am34 °FPassing clouds.6 mph70%30.18 "HgN/A
10:50 am32 °FSunny.7 mph80%30.21 "Hg10 mi
10:20 am30 °FSunny.6 mph86%30.21 "Hg10 mi
9:50 am30 °FPassing clouds.6 mph86%30.18 "HgN/A
9:20 am28 °FPassing clouds.7 mph93%30.18 "HgN/A
8:50 am28 °FPassing clouds.6 mph93%30.18 "HgN/A
8:20 am27 °FSunny.6 mph100%30.18 "Hg10 mi
7:50 am27 °FSunny.5 mph100%30.18 "Hg10 mi
7:20 am27 °FClear.5 mph100%30.18 "Hg10 mi
6:50 am28 °FClear.5 mph100%30.15 "Hg10 mi
Weather by CustomWeather, © 2016

See weather overviewHow to use our weather pages